Tracking 20715 objects as of 27-May-2020
HD Live streaming from Space Station
objects crossing your sky now

COSMOS 394

Track COSMOS 394 now!
10-day predictions
COSMOS 394 is classified as:


NORAD ID: 4922
Int'l Code: 1971-010A
Perigee: 475.1 km
Apogee: 490.8 km
Inclination: 65.8 °
Period: 94.1 minutes
Semi major axis: 6853 km
RCS: 1.2944 m2 (large)
Launch date: February 9, 1971
Source: Commonwealth of Independent States (former USSR) (CIS)
Launch site: PLESETSK MISSILE AND SPACE COMPLEX (PKMTR)
aabbcc
Your satellite tracking list
Your tracking list is empty




NASA's NSSDC Master Catalog

Two Line Element Set (TLE):
1  4922U 71010A   20145.28390829 -.00000016 +00000-0 +66123-5 0  9990
2  4922 065.8237 160.3895 0011450 201.0543 159.0128 15.29985494717487
Source of the keplerian elements: AFSPC